Weather History for KNBT - May, 2014

Change the Weather History Date:

Saturday, May 3, 2014

  Actual Average (KMRH) Record (KMRH)
Temperature  
Mean Temperature 68 °F -  
Max Temperature 75 °F 75 °F 87 °F (1959)
Min Temperature 62 °F 55 °F 42 °F (1978)
Cooling Degree Days 2    
Growing Degree Days 18 (Base 50)    
Moisture  
Dew Point 57 °F    
Average Humidity 72    
Maximum Humidity 93    
Minimum Humidity 50    
Precipitation  
Precipitation 0.00 in - - ()
Sea Level Pressure  
Sea Level Pressure 29.90 in    
Wind  
Wind Speed 6 mph (SW)    
Max Wind Speed 16 mph    
Max Gust Speed 25 mph    
Visibility 10 miles    
Events Rain    
Averages and records for this station are not official NWS values.
T = Trace of Precipitation, MM = Missing Value Source: NWS Daily Summary

Daily Weather History Graph

Daily Weather History Graph

Search for Another Location

Airport or City:

Trip Planner

Search our weather history database for the weather conditions in past years. The results will help you decide how hot, cold, wet, or windy it might be!

Date:

Astronomy

May. 03, 2014 Rise Set
Actual Time 6:12 AM EDT 7:53 PM EDT
Civil Twilight 5:45 AM EDT 8:20 PM EDT
Nautical Twilight 5:13 AM EDT 8:53 PM EDT
Astronomical Twilight 4:38 AM EDT 9:27 PM EDT
Moon 9:42 AM EDT (5/3) 11:56 PM EDT (5/3)
Length of Visible Light 14h 34m
Length of Day
13h 40m
Waxing Crescent, 19% of the Moon is Illuminated
May 3
Waxing Crescent
May 6
First Quarter
May 14
Full
May 21
Last Quarter
May 28
New

Hourly Weather History & Observations

Time (EDT) Temp. Dew Point Humidity Pressure Visibility Wind Dir Wind Speed Gust Speed Precip Events Conditions
12:56 AM 62.1 °F 57.0 °F 84% 29.91 in 10.0 mi SSW 5.8 mph - N/A   Mostly Cloudy
1:56 AM 63.0 °F 57.9 °F 84% 29.90 in 10.0 mi SW 4.6 mph - N/A   Mostly Cloudy
2:56 AM 63.0 °F 57.9 °F 84% 29.89 in 10.0 mi West 4.6 mph - N/A   Overcast
3:56 AM 62.1 °F 59.0 °F 90% 29.90 in 7.0 mi WSW 4.6 mph - N/A Rain Light Rain
4:56 AM 63.0 °F 60.1 °F 90% 29.90 in 9.0 mi SW 4.6 mph - N/A Rain Light Rain
5:56 AM 62.1 °F 60.1 °F 93% 29.91 in 9.0 mi Calm Calm - N/A Rain Light Rain
6:56 AM 62.1 °F 60.1 °F 93% 29.92 in 7.0 mi SSW 3.5 mph - N/A   Overcast
7:56 AM 63.0 °F 61.0 °F 93% 29.91 in 8.0 mi SSW 4.6 mph - N/A   Scattered Clouds
8:56 AM 64.9 °F 60.1 °F 84% 29.92 in 9.0 mi West 3.5 mph - N/A   Mostly Cloudy
9:56 AM 66.9 °F 55.0 °F 66% 29.93 in 10.0 mi West 4.6 mph - N/A   Clear
10:56 AM 69.1 °F 52.0 °F 54% 29.92 in 10.0 mi Calm Calm - N/A   Partly Cloudy
11:56 AM 68.0 °F 54.0 °F 61% 29.91 in 10.0 mi ENE 5.8 mph - N/A   Scattered Clouds
12:56 PM 71.1 °F 55.0 °F 57% 29.90 in 10.0 mi Variable 5.8 mph - N/A   Partly Cloudy
1:56 PM 72.0 °F 53.1 °F 51% 29.89 in 10.0 mi Variable 3.5 mph - N/A   Clear
2:56 PM 72.0 °F 55.0 °F 55% 29.88 in 10.0 mi East 9.2 mph - N/A   Clear
3:56 PM 73.0 °F 55.9 °F 55% 29.87 in 10.0 mi SSE 11.5 mph - N/A   Partly Cloudy
4:56 PM 73.9 °F 54.0 °F 50% 29.86 in 10.0 mi SSW 16.1 mph - N/A   Scattered Clouds
5:56 PM 73.0 °F 54.0 °F 51% 29.87 in 10.0 mi SSW 13.8 mph 25.3 mph N/A   Clear
6:56 PM 71.1 °F 54.0 °F 55% 29.87 in 10.0 mi SSW 15.0 mph 24.2 mph N/A   Clear
7:11 PM 70.0 °F 54.0 °F 57% 29.86 in 10.0 mi SSW 16.1 mph - N/A   Partly Cloudy
7:56 PM 68.0 °F 55.9 °F 65% 29.89 in 10.0 mi SSW 9.2 mph - N/A   Clear
8:56 PM 64.9 °F 57.0 °F 75% 29.90 in 10.0 mi SSW 8.1 mph - N/A   Clear
9:56 PM 64.0 °F 57.9 °F 80% 29.91 in 10.0 mi SW 4.6 mph - N/A   Clear
10:56 PM 64.0 °F 60.1 °F 87% 29.92 in 10.0 mi SSW 4.6 mph - N/A   Clear
11:56 PM 64.0 °F 62.1 °F 93% 29.94 in 9.0 mi SW 5.8 mph - N/A   Clear